Change the Weather History Date:

Friday, May 24, 2013

  Actual Average Record
Temperature  
Mean Temperature 55 °F 57 °F  
Max Temperature 60 °F 69 °F 91 °F (1977)
Min Temperature 50 °F 46 °F 24 °F (1924)
Degree Days  
Heating Degree Days 10    
Cooling Degree Days 0 1  
Month to date cooling degree days 10 2  
Year to date cooling degree days 10 3  
Growing Degree Days 5 (Base 50)    
Moisture  
Dew Point 47 °F    
Average Humidity 74    
Maximum Humidity 100    
Minimum Humidity 47    
Precipitation  
Precipitation 0.03 in 0.09 in 0.72 in (2010)
Month to date precipitation 3.94 1.84  
Year to date precipitation 5.56 4.73  
Sea Level Pressure  
Sea Level Pressure 30.04 in    
Wind  
Wind Speed 14 mph (ESE)    
Max Wind Speed 28 mph    
Max Gust Speed 41 mph    
Visibility 8 miles    
Events Rain    
T = Trace of Precipitation, MM = Missing Value Source: NWS Daily Summary

Daily Weather History Graph

Daily Weather History Graph

Search for Another Location

Airport or City:

Trip Planner

Search our weather history database for the weather conditions in past years. The results will help you decide how hot, cold, wet, or windy it might be!

Date:

Astronomy

May. 24, 2013 Rise Set
Actual Time 5:54 AM CDT 9:29 PM CDT
Civil Twilight 5:16 AM CDT 10:08 PM CDT
Nautical Twilight 4:23 AM CDT 11:01 PM CDT
Astronomical Twilight 3:12 AM CDT 12:13 AM CDT
Moon 9:11 PM CDT (5/24) 5:33 AM CDT (5/24)
Length of Visible Light 16h 52m
Length of Day
15h 34m
Full, 100% of the Moon is Illuminated
May 24
Full
May 24
Full
May 31
Last Quarter
Jun 8
New
Jun 16
First Quarter

Hourly Weather History & Observations

Time (CDT) Temp. Dew Point Humidity Pressure Visibility Wind Dir Wind Speed Gust Speed Precip Events Conditions
12:54 AM 53.1 °F 39.9 °F 61% 30.16 in 10.0 mi East 11.5 mph - N/A   Clear
1:54 AM 53.1 °F 42.1 °F 66% 30.15 in 10.0 mi ESE 12.7 mph - N/A   Clear
2:54 AM 52.0 °F 43.0 °F 71% 30.14 in 10.0 mi East 9.2 mph - N/A   Clear
3:54 AM 52.0 °F 45.0 °F 77% 30.12 in 10.0 mi ESE 10.4 mph - N/A   Mostly Cloudy
4:54 AM 52.0 °F 44.1 °F 74% 30.11 in 10.0 mi East 12.7 mph - N/A   Scattered Clouds
5:54 AM 52.0 °F 43.0 °F 71% 30.09 in 10.0 mi ESE 11.5 mph - N/A   Mostly Cloudy
6:54 AM 51.1 °F 42.1 °F 71% 30.10 in 10.0 mi East 12.7 mph - N/A   Scattered Clouds
7:54 AM 52.0 °F 41.0 °F 66% 30.08 in 10.0 mi East 16.1 mph - N/A   Scattered Clouds
8:54 AM 57.0 °F 37.9 °F 49% 30.06 in 10.0 mi ESE 18.4 mph 25.3 mph N/A   Clear
9:54 AM 59.0 °F 39.0 °F 48% 30.03 in 10.0 mi ESE 17.3 mph 31.1 mph N/A   Overcast
10:54 AM 59.0 °F 41.0 °F 51% 30.01 in 10.0 mi ESE 17.3 mph 25.3 mph N/A   Overcast
11:54 AM 59.0 °F 42.1 °F 53% 30.00 in 10.0 mi ESE 24.2 mph 36.8 mph N/A   Overcast
12:54 PM 55.9 °F 45.0 °F 67% 30.01 in 10.0 mi SE 26.5 mph 33.4 mph N/A   Overcast
1:16 PM 55.4 °F 46.4 °F 72% 30.00 in 10.0 mi SE 17.3 mph 26.5 mph 0.00 in   Overcast
1:51 PM 53.6 °F 46.4 °F 77% 30.00 in 2.0 mi SE 25.3 mph 35.7 mph 0.00 in Rain Light Rain
1:54 PM 53.1 °F 48.0 °F 83% 30.03 in 2.0 mi SE 21.9 mph 35.7 mph 0.00 in Rain Light Rain
2:01 PM 53.6 °F 48.2 °F 82% 30.00 in 1.5 mi SE 17.3 mph 29.9 mph 0.00 in Rain Light Rain
2:54 PM 52.0 °F 50.0 °F 93% 30.02 in 1.5 mi ESE 15.0 mph - 0.01 in   Mostly Cloudy
3:01 PM 51.8 °F 51.8 °F 100% 30.00 in 2.5 mi SE 13.8 mph 20.7 mph 0.00 in Rain Light Rain
3:12 PM 51.8 °F 51.8 °F 100% 29.99 in 3.0 mi ESE 13.8 mph - 0.00 in Rain Light Rain
3:26 PM 51.8 °F 51.8 °F 100% 30.00 in 2.5 mi ESE 16.1 mph - 0.01 in Rain Light Rain
3:54 PM 52.0 °F 51.1 °F 97% 30.01 in 2.5 mi ESE 13.8 mph - 0.01 in   Overcast
4:19 PM 53.6 °F 51.8 °F 94% 29.99 in 4.0 mi ESE 12.7 mph - 0.01 in   Overcast
4:41 PM 53.6 °F 51.8 °F 94% 29.99 in 10.0 mi ESE 12.7 mph - 0.01 in   Overcast
4:54 PM 54.0 °F 51.1 °F 90% 30.01 in 10.0 mi ESE 15.0 mph - 0.01 in   Overcast
5:54 PM 54.0 °F 51.1 °F 90% 30.00 in 10.0 mi ESE 12.7 mph - N/A   Overcast
6:54 PM 55.0 °F 51.1 °F 86% 30.00 in 10.0 mi ESE 9.2 mph - N/A   Overcast
7:54 PM 55.0 °F 52.0 °F 89% 29.99 in 10.0 mi East 10.4 mph - N/A   Overcast
8:54 PM 55.0 °F 52.0 °F 89% 30.01 in 10.0 mi ESE 10.4 mph - N/A   Overcast
9:54 PM 54.0 °F 52.0 °F 93% 30.04 in 10.0 mi East 6.9 mph - N/A   Overcast
10:18 PM 53.6 °F 51.8 °F 94% 30.03 in 10.0 mi East 8.1 mph - N/A   Overcast
10:52 PM 53.6 °F 51.8 °F 94% 30.04 in 10.0 mi East 9.2 mph - N/A   Overcast
10:54 PM 54.0 °F 51.1 °F 90% 30.05 in 10.0 mi East 9.2 mph - N/A   Overcast
11:54 PM 53.1 °F 51.1 °F 93% 30.05 in 9.0 mi East 6.9 mph - N/A   Overcast